Tracking 28126 objects as of 1-Oct-2023
HD Live streaming from Space Station
objects crossing your sky now

COSMOS 886 DEB

Track COSMOS 886 DEB now!
10-day predictions


NORAD ID: 9656
Int'l Code: 1976-126N
Perigee: 647.3 km
Apogee: 1,994.9 km
Inclination: 65.8 °
Period: 111.9 minutes
Semi major axis: 7692 km
RCS: 0.0512 m2 (small)
Launch date: December 27, 1976
Source: Commonwealth of Independent States (former USSR) (CIS)
Launch site: TYURATAM MISSILE AND SPACE COMPLEX (TTMTR)

Note: This is SATELLITE DEBRIS
Your satellite tracking list
Your tracking list is empty




NASA's NSSDC Master Catalog

Two Line Element Set (TLE):
1  9656U 76126N   23273.84118213  .00002975  00000-0  21455-2 0  9995
2  9656  65.8199  97.9771 0875930 140.8329 225.9555 12.86873772172683
Source of the keplerian elements: AFSPC